Погода в Чкалове

Россия / Оренбургская область     51˚43′14″N   55˚21′54″E
темп.,
°C
ветер,
м/с
пор.,
м/с
влажн.,
%
обл.,
%
осадки,
мм/ч
давл.,
гПа
погр.,
м
16 января, сб
сб1623:00−5˚вюв6118893 0.0 1008373
02:00−5˚вюв61288100 0.0 1005357
05:00−3˚юв61289100 0.0 1003403
08:00−1˚ю61195100 0.3 1003435
11:00−1˚юз81289100 0.4 1006739
14:00−6˚зюз8148794 0.0 1009619
17:00−9˚юз6138963 0.0 1012426
20:00−11˚ююз5119329 0.0 1013208
17 января, вс
вс1723:00−9˚ююз5149232 0.0 1013395
02:00−6˚ююз91789100 0.2 1011816
05:00−10˚юз8168183 0.3 1012532
08:00−15˚юз6149250 0.0 1013373
11:00−16˚юз6129371 0.0 1015371
14:00−14˚юз599299 0.0 1016406
17:00−16˚юз239599 0.0 101734
20:00−20˚зюз1210060 0.0 101720
18 января, пн
пн1823:00−22˚юв0010051 0.0 101820
02:00−22˚всв1110080 0.0 101820
05:00−21˚всв229889 0.0 101820
08:00−20˚св339693 0.0 101730
11:00−18˚св359377 0.0 1017116
14:00−14˚св359033 0.0 1015159
17:00−14˚ссв359063 0.0 1014112
20:00−14˚св4586100 0.0 101492
19 января, вт
вт1923:00−13˚всв3487100 0.0 101267
02:00−11˚всв4989100 0.0 1011279
05:00−12˚всв51190100 0.0 1010352
08:00−12˚всв51092100 0.0 1008375
11:00−12˚в61095100 1.1 1008493
14:00−11˚в5894100 1.9 1007465
17:00−11˚в2296100 2.6 1008187
20:00−12˚зюз479599 0.3 1010229
20 января, ср
ср2023:00−14˚зюз6119499 0.6 1013463
02:00−15˚зюз61094100 0.4 1015507
05:00−19˚юз51095100 0.4 1017297
08:00−21˚юз4996100 0.1 1019262
11:00−23˚ююз359897 0.1 1021129
14:00−20˚ююз3595100 0.1 1022303
17:00−20˚ююв239798 0.1 102268
20:00−20˚юв239897 0.1 102354